カタログに戻る

FORMOSAT7-3/COSMIC2-3

運用中気象VLEO
NORAD 44343·PAYLOAD·🇹🇼 Taiwan

打ち上げ Jun 25, 2019 から Cape Canaveral Space Force Station

Loading…

次のパス (今後24時間)

TLE

最新Source: Space-Track

元期: Sep 14, 2026, 10:51 UTC

1 44343U 19036E   26257.45217214  .00003755  00000-0  20218-3 0  9991
2 44343  23.9990 283.8894 0000266 227.8323 132.2159 15.10377218396753

AllMySatでFORMOSAT7-3/COSMIC2-3をリアルタイム追跡

Download on the App Store